TimeEDT,TemperatureF,Dew PointF,Humidity,Sea Level PressureIn,VisibilityMPH,Wind Direction,Wind SpeedMPH,Gust SpeedMPH,PrecipitationIn,Events,Conditions,WindDirDegrees,DateUTC
12:54 AM,62.1,57.0,84,29.95,10.0,Calm,Calm,-,N/A,,Mostly Cloudy,0,2013-10-11 04:54:00
1:54 AM,62.1,57.0,84,29.94,10.0,NNE,3.5,-,N/A,,Overcast,20,2013-10-11 05:54:00
2:54 AM,62.1,57.0,84,29.94,10.0,Calm,Calm,-,N/A,,Overcast,0,2013-10-11 06:54:00
3:54 AM,61.0,57.0,87,29.93,10.0,Calm,Calm,-,N/A,,Mostly Cloudy,0,2013-10-11 07:54:00
4:54 AM,61.0,57.0,87,29.93,10.0,Calm,Calm,-,N/A,,Overcast,0,2013-10-11 08:54:00
5:54 AM,60.1,57.0,90,29.94,10.0,WNW,3.5,-,N/A,,Overcast,300,2013-10-11 09:54:00
6:54 AM,61.0,57.0,87,29.96,10.0,NW,3.5,-,N/A,,Overcast,310,2013-10-11 10:54:00
7:54 AM,62.1,55.9,80,29.96,10.0,NNW,5.8,-,N/A,,Overcast,330,2013-10-11 11:54:00
8:54 AM,63.0,55.9,78,29.96,10.0,Calm,Calm,-,N/A,,Overcast,0,2013-10-11 12:54:00
9:54 AM,64.9,55.9,73,29.97,10.0,North,3.5,-,N/A,,Mostly Cloudy,350,2013-10-11 13:54:00
10:54 AM,66.9,55.9,68,29.97,10.0,NW,4.6,-,N/A,,Overcast,310,2013-10-11 14:54:00
11:54 AM,70.0,57.0,63,29.96,10.0,Variable,5.8,-,N/A,,Overcast,0,2013-10-11 15:54:00
12:54 PM,70.0,57.0,63,29.95,10.0,North,8.1,-,N/A,,Overcast,360,2013-10-11 16:54:00
1:54 PM,71.1,57.9,63,29.93,10.0,NNE,3.5,-,N/A,,Overcast,20,2013-10-11 17:54:00
2:54 PM,70.0,57.9,65,29.92,10.0,NW,5.8,-,N/A,,Overcast,320,2013-10-11 18:54:00
3:54 PM,70.0,57.9,65,29.92,10.0,NW,4.6,-,N/A,,Overcast,310,2013-10-11 19:54:00
4:54 PM,70.0,59.0,68,29.92,10.0,Variable,4.6,-,N/A,,Mostly Cloudy,0,2013-10-11 20:54:00
5:54 PM,70.0,59.0,68,29.92,10.0,WNW,4.6,-,N/A,,Overcast,290,2013-10-11 21:54:00
6:54 PM,69.1,60.1,73,29.93,10.0,Calm,Calm,-,N/A,,Overcast,0,2013-10-11 22:54:00
7:54 PM,69.1,60.1,73,29.94,10.0,Calm,Calm,-,N/A,,Overcast,0,2013-10-11 23:54:00
8:54 PM,68.0,61.0,78,29.96,10.0,Calm,Calm,-,N/A,,Overcast,0,2013-10-12 00:54:00
9:54 PM,66.0,61.0,84,29.97,10.0,East,4.6,-,N/A,,Overcast,80,2013-10-12 01:54:00
10:54 PM,64.9,61.0,87,29.97,10.0,ENE,5.8,-,N/A,,Overcast,60,2013-10-12 02:54:00
11:54 PM,64.9,61.0,87,29.97,10.0,NE,4.6,-,N/A,,Overcast,50,2013-10-12 03:54:00